Location: Chenango Forks
(42.2242°N, 75.8278°W)
Time: 05:52:33
(UTC-04:00)

Daily predictions for brighter satellites

Satellite Brightness Start Highest point End
(mag) Time Altitude Azimuth Time Altitude Azimuth Time Altitude Azimuth
Cosmos 2315 Rocket 4.3 00:13:51 63° N 00:13:51 63° N 00:18:58 10° N
NOSS 3-1 (C) 4.4 00:13:49 36° WNW 00:15:20 42° NW 00:21:35 10° NNE
Cosmos 2333 Rocket 3.5 00:21:21 34° WNW 00:21:50 35° WNW 00:27:07 10° N
Cosmos 2237 Rocket 3.2 00:26:24 42° NW 00:26:24 42° NW 00:31:25 10° NNE
ATLAS CENTAUR R/B 4.3 00:31:51 11° NE 00:31:51 11° NE 00:32:05 10° NE
Cosmos 2278 Rocket 3.7 00:24:32 10° NW 00:27:48 28° WNW 00:27:48 28° WNW
NOSS 3-1 (A) 4.3 00:29:37 43° WNW 00:30:17 45° NW 00:36:37 10° NNE
ATLAS 2AS CENTAUR R/B 3.4 00:32:49 51° E 00:32:49 51° E 00:39:15 10° NE
CZ-2C R/B 3.6 00:36:33 10° NNE 00:40:15 45° NNE 00:40:15 45° NNE
Cosmos 2184 Rocket 4.4 00:40:00 10° N 00:45:12 60° NNE 00:45:12 60° NNE
ATLAS 3B R/B 2.9 00:59:52 10° NNW 01:06:04 63° NNE 01:06:04 63° NNE
USA 238 DEB 4.0 01:16:37 10° NNW 01:23:40 64° NE 01:23:52 64° ENE
USA 238 4.0 01:16:44 10° NNW 01:23:46 64° NE 01:24:00 64° ENE
Cosmos 2154 Rocket 4.4 01:19:06 10° N 01:24:12 61° N 01:24:12 61° N
Cosmos 2369 Rocket 3.1 01:21:58 10° NNW 01:26:16 45° NNE 01:26:16 45° NNE
USA 215 3.6 01:34:27 10° NE 01:39:38 55° E 01:39:38 55° E
Cosmos 1943 Rocket 3.2 01:41:10 10° NNW 01:46:25 41° NE 01:46:25 41° NE
SL-16 R/B 3.9 01:46:54 24° NW 01:47:03 24° NW 01:51:37 10° N
ATLAS CENTAUR R/B 4.1 02:08:06 13° NNW 02:08:06 13° NNW 02:09:34 10° N
Cosmos 2181 Rocket 4.1 02:08:48 71° NNW 02:08:48 71° NNW 02:14:38 10° N
SL-16 R/B 4.4 02:06:35 13° ESE 02:10:40 25° ENE 02:15:30 10° N
Cosmos 2218 Rocket 4.1 02:04:57 10° N 02:10:48 69° NE 02:10:48 69° NE
USA 267 4.1 02:07:20 10° E 02:13:32 48° NNE 02:19:45 10° NW
Cosmos 2366 rocket 4.1 02:08:45 10° N 02:14:57 67° ENE 02:14:57 67° ENE
NOSS 3-4 (A) 3.9 02:22:20 53° E 02:22:20 53° E 02:28:05 10° NE
NOSS 3-4 (C) 3.9 02:22:26 52° E 02:22:26 52° E 02:28:11 10° NE
ATLAS 2AS CENTAUR R/B 3.9 02:20:13 33° W 02:22:46 41° NW 02:30:23 10° NNE
SL-8 Rocket 4.1 02:20:59 10° NNW 02:26:20 65° NW 02:26:20 65° NW
NOSS 3-2 (A) 3.9 02:28:43 10° NW 02:36:17 89° ENE 02:38:59 47° SE
Cosmos 773 Rocket 4.4 02:40:19 58° N 02:40:19 58° N 02:44:34 10° NNE
Cosmos 1943 3.9 02:43:07 43° NW 02:43:07 43° NW 02:48:09 10° NNE
Cosmos 2112 Rocket 4.4 02:50:18 56° E 02:50:18 56° E 02:55:12 10° NNE
Aureole 1 Rocket 3.7 02:51:19 61° ENE 02:51:19 61° ENE 02:55:04 10° NNE
ATLAS 3B R/B 4.4 02:51:35 10° WNW 02:53:17 16° WNW 02:53:17 16° WNW
Nadezhda 3 Rocket 4.1 03:01:16 60° SSE 03:02:21 74° E 03:08:40 10° NNE
NPP 3.5 02:57:47 10° NNE 03:03:10 85° WNW 03:03:10 85° WNW
Lacrosse 5 rocket 3.3 03:05:58 25° ESE 03:05:58 25° ESE 03:09:11 10° ENE
Resurs 1-4 Rocket 2.8 03:02:29 10° NNE 03:07:32 45° E 03:08:31 40° SE
Cosmos 2369 Rocket 4.2 03:06:51 10° NW 03:08:01 14° WNW 03:08:01 14° WNW
SL-08 R/B 3.8 03:12:21 49° NW 03:12:21 49° NW 03:15:59 10° NNW
Spot 4 Rocket 4.3 03:07:38 10° NNE 03:12:45 59° E 03:13:23 54° SE
Cosmos 1544 4.5 03:10:14 10° N 03:13:05 38° NE 03:13:05 38° NE
Cosmos 1805 4.3 03:10:03 10° N 03:13:40 41° ENE 03:13:40 41° ENE
Cosmos 1271 Rocket 4.2 03:10:35 10° N 03:13:58 31° ENE 03:14:12 31° E
CZ-2D R/B 2.5 03:12:36 10° NNE 03:17:49 55° E 03:18:55 46° SE
Cosmos 2056 Rocket 4.4 03:13:37 10° N 03:18:47 48° ENE 03:23:16 13° SE
Cosmos 1812 Rocket 4.1 03:16:34 10° NNW 03:19:57 51° NNW 03:19:57 51° NNW
Cosmos 921 Rocket 4.5 03:18:10 10° N 03:22:22 37° ENE 03:25:38 15° SE
Cosmos 1680 Rocket 3.5 03:23:12 63° WNW 03:23:22 64° WNW 03:28:36 10° NNE
USA 215 4.1 03:17:41 10° NE 03:23:46 43° NNW 03:26:59 26° W
CBERS-1 4.1 03:19:01 10° N 03:24:03 60° WNW 03:24:07 60° WNW
RESURS DK-1 2.7 03:25:43 64° NNE 03:25:43 64° NNE 03:29:16 10° NNE
COSMOS 2455 2.7 03:21:14 10° NNW 03:27:15 76° WSW 03:29:08 46° S
Cosmos 1842 3.7 03:28:16 58° NNE 03:28:16 58° NNE 03:31:27 10° N
Cosmos 1766 4.4 03:26:02 10° NNW 03:28:34 36° NNW 03:28:34 36° NNW
ADEOS 3.7 03:24:47 10° NNE 03:30:01 71° ESE 03:31:11 53° SSE
Cosmos 1943 Rocket 3.6 03:25:15 10° NW 03:27:54 23° WNW 03:27:54 23° WNW
Meteor 1-4 Rocket 4.2 03:29:49 10° NNW 03:31:48 28° NNW 03:31:48 28° NNW
Cosmos 192 4.2 03:35:33 72° WSW 03:35:58 78° WNW 03:40:55 10° NNE
Cosmos 1953 Rocket 4.1 03:35:11 45° SE 03:36:06 54° E 03:40:27 10° NNE
COSMOS 2406 3.1 03:35:40 58° SW 03:36:52 80° WNW 03:42:39 10° NNE
NOSS 2-2 (E) 3.9 03:36:50 50° SE 03:37:04 50° ESE 03:41:33 10° NE
IRS-1D 3.5 03:31:56 10° NNE 03:37:10 86° ESE 03:38:24 54° S
Meteor 1-22 Rocket 4.5 03:34:49 10° NNW 03:39:55 45° W 03:39:55 45° W
Meteor 2-8 Rocket 4.4 03:41:08 49° SSW 03:42:48 71° W 03:48:56 10° N
SL-27 R/B 2.8 03:43:36 62° NNE 03:43:36 62° NNE 03:46:40 10° NNE
NOSS 3-2 (C) 4.2 03:38:55 10° NW 03:46:08 47° WSW 03:50:12 27° S
ARIANE 5 R/B 2.5 03:43:06 10° NNE 03:48:22 81° WNW 03:49:48 49° SSW
Cosmos 1821 Rocket 3.8 03:42:39 10° NNW 03:48:44 72° W 03:51:18 36° SSW
CZ-2D R/B 4.3 03:45:10 10° NNE 03:49:04 43° E 03:50:23 32° SE
COBE Rocket 3.9 03:46:25 10° NNE 03:51:31 88° E 03:53:04 45° S
SL-16 R/B 2.5 03:51:39 38° SSW 03:53:51 58° W 03:59:57 10° NNW
Cosmos 1371 Rocket 4.0 03:49:15 10° NNW 03:54:34 65° WSW 03:56:34 38° S
Cosmos 1707 4.3 03:52:34 20° SE 03:54:35 32° E 03:58:04 10° NNE
USA 267 3.2 03:50:01 10° SSE 03:56:26 59° SW 04:02:54 10° NW
ADEOS Rocket 3.0 03:51:01 10° N 03:57:01 73° WNW 04:00:02 34° SSW
CENTAUR R/B 3.1 03:49:19 10° NW 03:57:15 85° NE 04:05:42 10° SE
Cosmos 1825 Rocket 3.6 03:58:07 56° WSW 03:58:37 60° W 04:03:00 10° N
Cosmos 1470 3.3 03:57:24 10° N 04:01:15 56° E 04:03:45 20° SSE
Cosmos 1953 2.2 03:58:32 10° NNW 04:02:31 68° W 04:02:57 61° SW
GEOS 3 Rocket 3.8 03:58:41 10° NNE 04:03:53 61° NW 04:05:55 36° WSW
Cosmos 1605 Rocket 3.9 04:03:07 10° N 04:09:21 89° ENE 04:15:30 10° S
Cosmos 1818 3.6 04:07:00 35° SSW 04:09:23 78° ESE 04:14:51 10° NE
Cosmos 1934 Rocket 4.0 04:04:37 10° NNW 04:10:48 62° W 04:14:55 22° SSW
COSMOS 2487 3.9 04:09:56 22° SSE 04:11:35 35° ESE 04:14:52 10° NE
Okean O Rocket 3.6 04:09:07 10° NE 04:12:50 26° E 04:16:30 10° SSE
NOSS 2-2 (D) 3.4 04:11:50 47° SW 04:13:00 84° NW 04:17:40 10° NE
ADEOS II 3.8 04:09:01 10° NE 04:13:35 29° E 04:18:07 10° SSE
UNKNOWN OBJECT B 2.8 04:10:49 10° N 04:14:48 75° WNW 04:16:05 42° SSW
Cosmos 839 Rocket 4.2 04:08:37 10° NNW 04:14:57 87° ENE 04:22:26 10° SSE
Cosmos 1758 3.9 04:15:09 10° NNW 04:18:57 38° W 04:19:10 37° W
NOSS 2-2 (C) 3.8 04:29:42 32° WSW 04:31:25 56° NW 04:36:05 10° NNE
Tiangong 1 0.6 04:33:01 56° WSW 04:33:26 69° SSW 04:36:14 10° ESE
Cosmos 1733 3.4 04:35:39 10° NNW 04:39:19 47° W 04:41:23 22° SSW
Cosmos 2100 Rocket 4.3 04:34:16 10° N 04:40:28 68° E 04:46:35 10° SSE
Cosmos 2098 Rocket 2.4 04:38:21 10° NNW 04:41:10 41° W 04:41:45 36° SW
Cosmos 1697 Rocket 3.9 04:37:07 10° NNW 04:42:32 45° ENE 04:47:53 10° SE
Lacrosse 5 rocket 2.0 04:41:41 23° WSW 04:44:23 53° NW 04:48:58 10° NE
MOS 1 Rocket 3.2 04:42:00 10° N 04:46:16 59° WNW 04:49:34 17° SSW
Delta 2 Rocket 3.9 04:45:44 24° SSW 04:46:24 26° S 04:49:15 10° SE
Cosmos 389 Rocket 2.9 04:43:24 10° NNW 04:46:51 41° W 04:49:04 19° SSW
Cosmos 2278 3.7 04:41:08 10° NNW 04:46:53 83° WSW 04:52:35 10° SSE
Resurs 1-4 Rocket 3.4 04:42:55 10° NNW 04:47:05 24° WNW 04:49:36 17° WSW
Cosmos 2173 Rocket 4.3 04:41:29 10° N 04:47:48 71° E 04:53:58 10° SSE
USA 161 2.5 04:48:14 27° WSW 04:48:22 28° W 04:50:56 10° NW
Cosmos 1271 Rocket 4.4 04:47:25 10° NW 04:49:21 16° W 04:49:21 16° W
Cosmos 1842 Rocket 3.6 04:45:45 10° N 04:50:11 83° E 04:54:37 10° S
Cosmos-2242 3.5 04:47:29 10° NNW 04:51:37 40° W 04:55:20 12° SSW
CZ-4B R/B 3.3 04:48:35 10° NNE 04:52:54 70° ESE 04:57:20 10° S
Cosmos 2369 3.7 04:48:38 10° NNW 04:54:23 74° WSW 05:00:05 10° SSE
CZ-2D R/B 3.6 04:53:37 10° NNW 04:57:28 21° WNW 05:00:15 14° W
PSLV R/B 4.1 04:54:00 10° NNE 04:58:21 60° E 05:02:37 10° S
Meteor 2-5 Rocket 3.8 04:52:51 10° SSW 04:58:30 67° WNW 05:04:19 10° N
MOS 1-B 4.5 04:53:54 10° N 04:59:37 61° WNW 05:05:18 10° SSW
EO 1 Del DPAF 4.0 04:56:00 10° SSE 04:59:46 55° ENE 05:03:33 10° N
Cosmos 921 Rocket 4.4 04:57:03 10° NW 05:00:24 21° W 05:02:20 16° SW
Cosmos 2061 Rocket 4.0 04:58:50 10° N 05:05:07 89° E 05:11:18 10° S
Cosmos 2221 3.3 05:06:57 10° N 05:11:10 54° E 05:15:20 10° SSE
Cosmos 2082 Rocket 2.2 05:09:06 10° SSW 05:14:49 82° WNW 05:20:33 10° NNE
Cosmos 1833 Rocket 2.7 05:10:25 10° SSW 05:16:02 87° WNW 05:21:42 10° NNE
Cosmos 1980 Rocket 3.3 05:10:41 10° NNW 05:16:14 51° ENE 05:21:44 10° SE
DNEPR-1 R/B 4.1 05:12:46 10° NW 05:16:39 35° WSW 05:20:47 10° S
Meteor 2-1 Rocket 4.3 05:12:06 10° N 05:17:46 87° W 05:23:31 10° S
Cosmos 1656 3.6 05:14:28 10° NNW 05:19:52 65° WSW 05:25:13 10° S
Cosmos 158 Rocket 3.9 05:16:41 10° SSW 05:21:41 83° WNW 05:26:51 10° NNE
CZ-4B R/B 3.1 05:16:45 10° NNE 05:22:09 81° WNW 05:27:27 10° SSW
PAYLOAD B 4.3 05:16:41 10° N 05:22:16 74° WNW 05:27:48 10° SSW
Okean-O 4.1 05:20:07 10° NNE 05:24:19 40° E 05:28:28 10° SSE
Orbus 7S? 2.7 05:21:30 10° NW 05:24:26 46° SW 05:26:56 10° SSE
Cosmos 2123 Rocket 4.4 05:18:26 10° S 05:24:41 71° E 05:30:58 10° NNE
CZ-2C R/B 3.6 05:20:44 10° S 05:25:09 78° WSW 05:29:39 10° NNW
Cosmos 2016 Rocket 4.0 05:19:17 10° N 05:25:33 83° W 05:31:52 10° S
Meteor PRIRODA 4.0 05:24:35 10° NNE 05:28:18 67° E 05:31:58 10° S
EXPRESS MD2 2.8 05:24:46 10° WNW 05:29:12 62° SW 05:31:45 10° SE
Cosmos 1707 4.4 05:28:01 10° WSW 05:30:37 17° WNW 05:33:13 10° NNW
Cosmos 972 Rocket 4.4 05:24:32 10° NNW 05:31:03 75° WSW 05:36:47 10° S
Meteor 1-31 Rocket 3.6 05:28:42 10° NNE 05:32:32 56° E 05:36:24 10° S
Okean 3 Rocket 3.6 05:33:33 10° SSW 05:37:56 74° W 05:42:23 10° N
ERS-2 3.5 05:36:10 10° NNE 05:39:43 43° E 05:43:14 10° S
Cosmos 1802 Rocket 4.2 05:34:30 10° NNW 05:40:44 53° W 05:46:54 10° SSW
